This is the latest recevied weather packets stored in our database for station/object W4DHW-4. If no packets are shown the sender has not sent any weather packets the latest 10 day(s).
| Time | Temp. | Humidity | Pressure | Rain* | Wind** | Luminosity | Snow |
|---|---|---|---|---|---|---|---|
| 1777412420 | 18.33° C | 78% | 1016.4 hPa | 0 mm | - | 95 W/m² | - |
| 1777412119 | 17.78° C | 78% | 1016.5 hPa | 0 mm | - | 157 W/m² | - |
| 1777411815 | 17.78° C | 79% | 1016 hPa | 0 mm | - | 79 W/m² | - |
| 1777411513 | 17.78° C | 78% | 1016 hPa | 0 mm | - | 78 W/m² | - |
| 1777411208 | 17.78° C | 79% | 1016 hPa | 0 mm | - | 81 W/m² | - |
| 1777410903 | 16.67° C | 81% | 1016.2 hPa | 0 mm | - | 87 W/m² | - |
| 1777410603 | 17.22° C | 81% | 1016.2 hPa | 0 mm | - | 122 W/m² | - |
| 1777410303 | 17.22° C | 81% | 1016.5 hPa | 0 mm | - | 164 W/m² | - |
| 1777409997 | 17.22° C | 80% | 1016.3 hPa | 0 mm | - | 414 W/m² | - |
| 1777409693 | 17.22° C | 80% | 1016.3 hPa | 0 mm | - | 335 W/m² | - |
| 1777409388 | 17.22° C | 81% | 1016.2 hPa | 0 mm | - | 134 W/m² | - |
| 1777409084 | 17.22° C | 80% | 1016.2 hPa | 0 mm | - | 459 W/m² | - |
| 1777408781 | 17.22° C | 80% | 1016.3 hPa | 0 mm | - | 185 W/m² | - |
| 1777408477 | 17.22° C | 80% | 1016.5 hPa | 0 mm | - | 140 W/m² | - |
| 1777408172 | 17.78° C | 78% | 1016.5 hPa | 0 mm | - | 186 W/m² | - |
| 1777407867 | 18.33° C | 77% | 1016.4 hPa | 0 mm | - | 158 W/m² | - |
| 1777407566 | 18.33° C | 76% | 1016.4 hPa | 0 mm | - | 120 W/m² | - |
| 1777407259 | 17.78° C | 77% | 1016.6 hPa | 0 mm | - | 123 W/m² | - |
| 1777406958 | 17.78° C | 77% | 1016.5 hPa | 0 mm | - | 146 W/m² | - |
| 1777406653 | 17.78° C | 78% | 1016.7 hPa | 0 mm | - | 196 W/m² | - |
| 1777406349 | 17.78° C | 78% | 1016.8 hPa | 0 mm | - | 144 W/m² | - |
| 1777406049 | 17.22° C | 78% | 1016.6 hPa | 0 mm | - | 156 W/m² | - |
| 1777405746 | 17.78° C | 78% | 1016.5 hPa | 0 mm | - | 232 W/m² | - |
| 1777405442 | 17.22° C | 79% | 1016.9 hPa | 0 mm | - | 189 W/m² | - |
| 1777405139 | 17.22° C | 80% | 1016.9 hPa | 0 mm | - | 280 W/m² | - |
* Rain latest hour (hover to see other rain measurements)
** Current wind speed in m/s (hover to see current wind gust speed)